| time (UTC) | temp F | wind direction | speed MPH | gust MPH | rain 1hr in | rain 24hr in | rain mn in | humidity % | barometer mb |
| 20260504040558 | 42 | 212 | 0.0 | 0.0 | 0.00 | 0.00 | 0.00 | 69 | 1008.0 |
| 20260504035558 | 42 | 212 | 0.0 | 0.0 | 0.00 | 0.00 | 0.00 | 68 | 1007.8 |
| 20260504034600 | 42 | 212 | 0.0 | 0.0 | 0.00 | 0.00 | 0.00 | 68 | 1007.8 |
| 20260504034100 | 42 | 212 | 0.0 | 0.0 | 0.00 | 0.00 | 0.00 | 67 | 1007.9 |
| 20260504033102 | 43 | 212 | 0.0 | 0.0 | 0.00 | 0.00 | 0.00 | 66 | 1008.0 |
| 20260504032101 | 43 | 212 | 0.0 | 0.0 | 0.00 | 0.00 | 0.00 | 64 | 1007.9 |
| 20260504031602 | 43 | 212 | 0.0 | 0.0 | 0.00 | 0.00 | 0.00 | 64 | 1007.9 |
| 20260504031102 | 43 | 212 | 0.0 | 0.0 | 0.00 | 0.00 | 0.00 | 66 | 1007.8 |
| 20260504030603 | 43 | 212 | 0.0 | 0.0 | 0.00 | 0.00 | 0.00 | 66 | 1007.8 |
| 20260504030203 | 43 | 212 | 0.0 | 0.0 | 0.00 | 0.00 | 0.00 | 66 | 1007.8 |
| 20260504025604 | 43 | 212 | 0.0 | 0.0 | 0.00 | 0.00 | 0.00 | 65 | 1007.9 |
| 20260504025105 | 44 | 212 | 0.0 | 0.0 | 0.00 | 0.00 | 0.00 | 64 | 1007.9 |
| 20260504024605 | 44 | 212 | 0.0 | 0.0 | 0.00 | 0.00 | 0.00 | 63 | 1007.9 |
| 20260504024105 | 44 | 212 | 0.0 | 0.0 | 0.00 | 0.00 | 0.00 | 61 | 1007.8 |
| 20260504023605 | 44 | 212 | 0.0 | 0.0 | 0.00 | 0.00 | 0.00 | 60 | 1007.8 |
| 20260504023106 | 45 | 212 | 0.0 | 0.0 | 0.00 | 0.00 | 0.00 | 59 | 1007.9 |
| 20260504022606 | 45 | 212 | 0.0 | 0.0 | 0.00 | 0.00 | 0.00 | 59 | 1008.0 |
| 20260504022109 | 45 | 212 | 0.0 | 0.0 | 0.00 | 0.00 | 0.00 | 58 | 1008.0 |
| 20260504021607 | 45 | 212 | 0.0 | 0.0 | 0.00 | 0.00 | 0.00 | 57 | 1008.0 |
| 20260504021108 | 46 | 212 | 0.0 | 0.0 | 0.00 | 0.00 | 0.00 | 56 | 1008.0 |
| 20260504020608 | 46 | 212 | 0.0 | 0.0 | 0.00 | 0.00 | 0.00 | 55 | 1008.0 |
| 20260504015609 | 46 | 212 | 0.0 | 0.0 | 0.00 | 0.00 | 0.00 | 53 | 1007.9 |
| 20260504015109 | 46 | 212 | 0.0 | 0.0 | 0.00 | 0.00 | 0.00 | 55 | 1007.9 |
| 20260504014110 | 47 | 212 | 0.0 | 0.0 | 0.00 | 0.00 | 0.00 | 55 | 1007.8 |
| 20260504013610 | 47 | 212 | 0.0 | 0.0 | 0.00 | 0.00 | 0.00 | 54 | 1007.8 |
| 20260504012111 | 49 | 212 | 0.0 | 0.0 | 0.00 | 0.00 | 0.00 | 48 | 1007.7 |
| 20260504011612 | 49 | 212 | 0.0 | 0.0 | 0.00 | 0.00 | 0.00 | 46 | 1007.7 |
| 20260504011112 | 49 | 212 | 0.0 | 0.0 | 0.00 | 0.00 | 0.00 | 44 | 1007.5 |
| 20260504010613 | 50 | 212 | 0.0 | 0.0 | 0.00 | 0.00 | 0.00 | 44 | 1007.5 |
| 20260504005114 | 51 | 212 | 0.0 | 0.0 | 0.00 | 0.00 | 0.00 | 43 | 1007.3 |
| 20260504004615 | 51 | 212 | 0.0 | 0.0 | 0.00 | 0.00 | 0.00 | 41 | 1007.3 |
| 20260504004115 | 52 | 212 | 0.0 | 0.0 | 0.00 | 0.00 | 0.00 | 40 | 1007.2 |
| 20260504003116 | 53 | 212 | 0.0 | 0.0 | 0.00 | 0.00 | 0.00 | 37 | 1007.2 |
| 20260504002616 | 53 | 212 | 0.0 | 0.0 | 0.00 | 0.00 | 0.00 | 37 | 1007.1 |
| 20260504001617 | 54 | 224 | 0.0 | 0.0 | 0.00 | 0.00 | 0.00 | 35 | 1007.1 |
| 20260504001117 | 54 | 215 | 0.0 | 0.0 | 0.00 | 0.00 | 0.00 | 36 | 1006.9 |
| 20260504000618 | 54 | 219 | 0.0 | 0.0 | 0.00 | 0.00 | 0.00 | 35 | 1006.9 |
| 20260503235119 | 55 | 253 | 0.0 | 0.0 | 0.00 | 0.00 | 0.00 | 34 | 1006.8 |
| 20260503234619 | 55 | 234 | 0.0 | 0.0 | 0.00 | 0.00 | 0.00 | 33 | 1006.7 |
| 20260503233051 | 56 | 243 | 0.0 | 0.0 | 0.00 | 0.00 | 0.00 | 32 | 1006.6 |
| 20260503232121 | 57 | 322 | 0.0 | 0.0 | 0.00 | 0.00 | 0.00 | 31 | 1006.5 |
| 20260503231552 | 57 | 230 | 0.0 | 0.0 | 0.00 | 0.00 | 0.00 | 31 | 1006.5 |
| 20260503231122 | 57 | 295 | 0.0 | 0.0 | 0.00 | 0.00 | 0.00 | 32 | 1006.4 |
| 20260503230623 | 57 | 264 | 0.0 | 0.0 | 0.00 | 0.00 | 0.00 | 31 | 1006.4 |
| 20260503225623 | 57 | 215 | 0.0 | 0.0 | 0.00 | 0.00 | 0.00 | 31 | 1006.3 |
| 20260503225053 | 57 | 281 | 0.0 | 0.0 | 0.00 | 0.00 | 0.00 | 31 | 1006.3 |
| 20260503224056 | 57 | 333 | 0.0 | 0.0 | 0.00 | 0.00 | 0.00 | 31 | 1006.3 |
| 20260503223625 | 57 | 302 | 0.0 | 0.0 | 0.00 | 0.00 | 0.00 | 30 | 1006.3 |
| 20260503223055 | 57 | 313 | 0.0 | 0.0 | 0.00 | 0.00 | 0.00 | 30 | 1006.3 |
| 20260503222556 | 57 | 282 | 0.0 | 0.0 | 0.00 | 0.00 | 0.00 | 30 | 1006.3 |
| 20260503222057 | 56 | 244 | 0.0 | 0.0 | 0.00 | 0.00 | 0.00 | 31 | 1006.3 |
| 20260503221558 | 56 | 357 | 0.0 | 0.0 | 0.00 | 0.00 | 0.00 | 31 | 1006.3 |
| 20260503221057 | 57 | 0 | 0.0 | 0.0 | 0.00 | 0.00 | 0.00 | 32 | 1006.2 |
| 20260503220558 | 57 | 352 | 0.0 | 0.0 | 0.00 | 0.00 | 0.00 | 30 | 1006.2 |
| 20260503215559 | 57 | 289 | 0.0 | 0.0 | 0.00 | 0.00 | 0.00 | 30 | 1006.2 |
| 20260503215059 | 57 | 350 | 0.0 | 0.0 | 0.00 | 0.00 | 0.00 | 30 | 1006.2 |
| 20260503214559 | 57 | 222 | 0.0 | 0.0 | 0.00 | 0.00 | 0.00 | 30 | 1006.2 |
| 20260503214100 | 57 | 352 | 0.0 | 0.0 | 0.00 | 0.00 | 0.00 | 30 | 1006.2 |
| 20260503213600 | 57 | 356 | 0.0 | 0.0 | 0.00 | 0.00 | 0.00 | 30 | 1006.2 |
| 20260503213100 | 56 | 326 | 0.0 | 0.0 | 0.00 | 0.00 | 0.00 | 31 | 1006.2 |
| 20260503212601 | 56 | 352 | 0.0 | 0.0 | 0.00 | 0.00 | 0.00 | 31 | 1006.2 |
| 20260503211602 | 56 | 248 | 0.0 | 0.0 | 0.00 | 0.00 | 0.00 | 30 | 1006.1 |
| 20260503211103 | 56 | 268 | 0.0 | 0.0 | 0.00 | 0.00 | 0.00 | 30 | 1006.2 |
| 20260503210602 | 56 | 250 | 0.0 | 0.0 | 0.00 | 0.00 | 0.00 | 29 | 1006.2 |
| 20260503210103 | 56 | 282 | 0.0 | 0.0 | 0.00 | 0.00 | 0.00 | 30 | 1006.2 |
| 20260503205603 | 56 | 301 | 0.0 | 0.0 | 0.00 | 0.00 | 0.00 | 31 | 1006.3 |
| 20260503205104 | 56 | 17 | 0.0 | 0.0 | 0.00 | 0.00 | 0.00 | 31 | 1006.3 |
| 20260503204604 | 55 | 232 | 0.0 | 0.0 | 0.00 | 0.00 | 0.00 | 30 | 1006.2 |
| 20260503204106 | 55 | 236 | 0.0 | 0.0 | 0.00 | 0.00 | 0.00 | 30 | 1006.3 |
| 20260503203606 | 55 | 6 | 0.0 | 0.0 | 0.00 | 0.00 | 0.00 | 30 | 1006.3 |
| 20260503203106 | 55 | 227 | 0.0 | 0.0 | 0.00 | 0.00 | 0.00 | 29 | 1006.3 |
| 20260503202606 | 55 | 263 | 0.0 | 0.0 | 0.00 | 0.00 | 0.00 | 30 | 1006.4 |
| 20260503202107 | 56 | 294 | 0.0 | 0.0 | 0.00 | 0.00 | 0.00 | 30 | 1006.4 |
| 20260503201607 | 55 | 1 | 0.0 | 0.0 | 0.00 | 0.00 | 0.00 | 30 | 1006.4 |
| 20260503201107 | 55 | 268 | 0.0 | 0.0 | 0.00 | 0.00 | 0.00 | 31 | 1006.5 |
| 20260503200608 | 54 | 282 | 0.0 | 0.0 | 0.00 | 0.00 | 0.00 | 31 | 1006.5 |
| 20260503195109 | 54 | 333 | 0.0 | 0.0 | 0.00 | 0.00 | 0.00 | 32 | 1006.8 |
| 20260503194617 | 54 | 278 | 0.0 | 0.0 | 0.00 | 0.00 | 0.00 | 32 | 1006.8 |
| 20260503194111 | 54 | 296 | 0.0 | 0.0 | 0.00 | 0.00 | 0.00 | 31 | 1006.6 |
| 20260503193111 | 54 | 329 | 0.0 | 0.0 | 0.00 | 0.00 | 0.00 | 32 | 1006.6 |
| 20260503192112 | 54 | 0 | 0.0 | 0.0 | 0.00 | 0.00 | 0.00 | 33 | 1006.7 |
| 20260503191612 | 53 | 344 | 0.0 | 0.0 | 0.00 | 0.00 | 0.00 | 35 | 1006.7 |
| 20260503191113 | 53 | 359 | 0.0 | 0.0 | 0.00 | 0.00 | 0.00 | 34 | 1006.7 |
| 20260503190614 | 54 | 271 | 0.0 | 0.0 | 0.00 | 0.00 | 0.00 | 34 | 1006.7 |
| 20260503185614 | 53 | 340 | 0.0 | 0.0 | 0.00 | 0.00 | 0.00 | 34 | 1007.0 |
| 20260503185114 | 53 | 344 | 0.0 | 0.0 | 0.00 | 0.00 | 0.00 | 33 | 1007.0 |
| 20260503184614 | 52 | 240 | 0.0 | 0.0 | 0.00 | 0.00 | 0.00 | 35 | 1007.0 |
| 20260503184115 | 51 | 344 | 0.0 | 0.0 | 0.00 | 0.00 | 0.00 | 35 | 1007.2 |
| 20260503183115 | 52 | 357 | 0.0 | 0.0 | 0.00 | 0.00 | 0.00 | 35 | 1007.2 |
| 20260503181618 | 51 | 322 | 0.0 | 0.0 | 0.00 | 0.00 | 0.00 | 34 | 1007.1 |
| 20260503181117 | 51 | 352 | 0.0 | 0.0 | 0.00 | 0.00 | 0.00 | 36 | 1007.2 |
| 20260503180618 | 50 | 357 | 0.0 | 0.0 | 0.00 | 0.00 | 0.00 | 38 | 1007.1 |
| 20260503180148 | 51 | 336 | 0.0 | 0.0 | 0.00 | 0.00 | 0.00 | 36 | 1007.2 |
| 20260503175618 | 51 | 13 | 0.0 | 0.0 | 0.00 | 0.00 | 0.00 | 36 | 1007.2 |
| 20260503175119 | 51 | 291 | 0.0 | 0.0 | 0.00 | 0.00 | 0.00 | 36 | 1007.2 |
| 20260503174619 | 50 | 280 | 0.0 | 0.0 | 0.00 | 0.00 | 0.00 | 38 | 1007.2 |
| 20260503174120 | 50 | 24 | 0.0 | 0.0 | 0.00 | 0.00 | 0.00 | 38 | 1007.6 |
| 20260503173620 | 50 | 282 | 0.0 | 0.0 | 0.00 | 0.00 | 0.00 | 37 | 1007.6 |
| 20260503173120 | 50 | 270 | 0.0 | 0.0 | 0.00 | 0.00 | 0.00 | 38 | 1007.6 |
| 20260503172053 | 50 | 272 | 0.0 | 0.0 | 0.00 | 0.00 | 0.00 | 38 | 1007.6 |
| 20260503171622 | 50 | 253 | 0.0 | 0.0 | 0.00 | 0.00 | 0.00 | 38 | 1007.6 |
| 20260503171052 | 50 | 263 | 0.0 | 0.0 | 0.00 | 0.00 | 0.00 | 41 | 1007.7 |
| 20260503170623 | 48 | 329 | 0.0 | 0.0 | 0.00 | 0.00 | 0.00 | 40 | 1007.6 |
| 20260503150603 | 45 | 0 | 0.0 | 0.0 | 0.00 | 0.00 | 0.00 | 45 | 1008.2 |
| 20260503140208 | 45 | 282 | 0.0 | 0.0 | 0.00 | 0.00 | 0.00 | 49 | 1008.0 |
| 20260503130613 | 44 | 342 | 0.0 | 0.0 | 0.00 | 0.00 | 0.00 | 52 | 1008.0 |
| 20260503130214 | 43 | 237 | 0.0 | 0.0 | 0.00 | 0.00 | 0.00 | 53 | 1008.0 |
| 20260503110554 | 40 | 337 | 0.0 | 0.0 | 0.00 | 0.00 | 0.00 | 63 | 1007.2 |
| 20260503110153 | 40 | 13 | 0.0 | 0.0 | 0.00 | 0.00 | 0.00 | 63 | 1007.2 |
| 20260503090203 | 41 | 352 | 0.0 | 0.0 | 0.00 | 0.01 | 0.00 | 59 | 1006.4 |
| 20260503081608 | 42 | 352 | 0.0 | 0.0 | 0.00 | 0.01 | 0.00 | 56 | 1006.5 |
| 20260503080608 | 42 | 6 | 0.0 | 0.0 | 0.00 | 0.01 | 0.00 | 55 | 1006.5 |
| 20260503072611 | 43 | 7 | 0.0 | 0.0 | 0.00 | 0.01 | 0.00 | 55 | 1006.3 |
| 20260503072111 | 43 | 0 | 0.0 | 0.0 | 0.00 | 0.01 | 0.00 | 55 | 1006.3 |
| 20260503071612 | 43 | 359 | 0.0 | 0.0 | 0.00 | 0.01 | 0.00 | 56 | 1006.3 |
| 20260503071142 | 43 | 23 | 0.0 | 0.0 | 0.00 | 0.01 | 0.00 | 55 | 1006.3 |
| 20260503060147 | 44 | 13 | 0.0 | 0.0 | 0.00 | 0.01 | 0.00 | 52 | 1006.5 |
| 20260503055120 | 44 | 308 | 0.0 | 0.0 | 0.00 | 0.01 | 0.00 | 51 | 1006.5 |
| 20260503054619 | 45 | 0 | 0.0 | 0.0 | 0.00 | 0.01 | 0.00 | 51 | 1006.5 |
| 20260503053050 | 45 | 350 | 0.0 | 0.0 | 0.00 | 0.01 | 0.00 | 49 | 1006.7 |
| 20260503052121 | 45 | 343 | 0.0 | 0.0 | 0.00 | 0.01 | 0.00 | 52 | 1006.8 |
| 20260503050554 | 45 | 0 | 0.0 | 0.0 | 0.00 | 0.01 | 0.00 | 51 | 1006.8 |
| 20260503050152 | 45 | 6 | 0.0 | 0.0 | 0.00 | 0.01 | 0.00 | 48 | 1006.7 |
| 20260503045623 | 45 | 336 | 0.0 | 0.0 | 0.00 | 0.01 | 0.00 | 47 | 1006.9 |
| 20260503045053 | 46 | 353 | 0.0 | 0.0 | 0.00 | 0.01 | 0.00 | 48 | 1007.0 |
| 20260503044124 | 46 | 0 | 0.0 | 0.0 | 0.00 | 0.01 | 0.00 | 48 | 1007.1 |
| 20260503043624 | 46 | 306 | 0.0 | 0.0 | 0.00 | 0.01 | 0.00 | 48 | 1007.1 |
| 20260503043056 | 46 | 350 | 0.0 | 0.0 | 0.00 | 0.01 | 0.00 | 49 | 1007.2 |
| 20260503042555 | 46 | 0 | 0.0 | 0.0 | 0.00 | 0.01 | 0.00 | 48 | 1007.2 |
| 20260503042056 | 46 | 357 | 0.0 | 0.0 | 0.00 | 0.01 | 0.00 | 47 | 1007.2 |
| 20260503041556 | 46 | 352 | 0.0 | 0.0 | 0.00 | 0.01 | 0.00 | 46 | 1007.2 |
| 20260503041056 | 46 | 352 | 0.0 | 0.0 | 0.00 | 0.01 | 0.00 | 46 | 1007.2 |